GW2674 Weather Reports


time (UTC)temp
C
wind
direction
speed
KPH
gust
KPH
rain 1hr
cm
rain 24hr
cm
rain mn
cm
humidity
%
barometer
mb
20260503180938 25 246 4.8 11.3 0.00 0.00 0.00 37 1016.1
20260503175438 23 207 3.2 8.0 0.00 0.00 0.00 39 1016.1
20260503173937 23 207 3.2 8.0 0.00 0.00 0.00 39 1016.1
20260503172434 21 189 3.2 8.0 0.00 0.00 0.00 45 1016.4
20260503170930 21 189 3.2 8.0 0.00 0.00 0.00 45 1016.4
20260503151005 12 76 6.4 12.9 0.00 0.00 0.00 71 1018.2
20260503130938 11 47 4.8 9.7 0.00 0.00 0.00 77 1018.2
20260503080942 13 31 3.2 6.4 0.00 0.00 0.00 71 1018.9
20260503072437 15 74 6.4 14.5 0.00 0.00 0.00 67 1018.9
20260503070932 15 52 3.2 11.3 0.00 0.00 0.00 68 1018.5
20260503054025 16 50 3.2 11.3 0.00 0.00 0.00 66 1018.5
20260503052523 17 53 1.6 4.8 0.00 0.00 0.00 68 1018.2
20260503051018 17 53 1.6 4.8 0.00 0.00 0.00 68 1018.2
20260503045514 17 61 3.2 8.0 0.00 0.00 0.00 74 1018.2
20260503044012 17 81 1.6 6.4 0.00 0.00 0.00 75 1017.8
20260503042507 17 107 0.0 3.2 0.00 0.00 0.00 73 1017.8
20260503041004 18 63 0.0 3.2 0.00 0.00 0.00 70 1017.2
20260503035501 18 63 0.0 3.2 0.00 0.00 0.00 70 1017.2
20260503033958 20 265 1.6 6.4 0.00 0.00 0.00 66 1016.4
20260503032458 20 265 1.6 6.4 0.00 0.00 0.00 66 1016.4
20260503030955 20 251 6.4 17.7 0.00 0.00 0.00 63 1016.1
20260503025451 20 251 6.4 17.7 0.00 0.00 0.00 63 1016.1
20260503023948 21 241 6.4 16.1 0.00 0.00 0.00 60 1015.7
20260503022443 22 224 4.8 16.1 0.00 0.00 0.00 59 1015.4
20260503020939 22 233 6.4 25.7 0.00 0.00 0.00 57 1015.4
20260503015436 23 255 9.7 29.0 0.00 0.00 0.00 54 1015.0
20260503013933 23 255 9.7 29.0 0.00 0.00 0.00 54 1015.0
20260503012431 23 255 9.7 29.0 0.00 0.00 0.00 54 1015.0
20260503004002 24 269 20.9 37.0 0.00 0.00 0.00 51 1015.0
20260503002459 24 269 20.9 37.0 0.00 0.00 0.00 51 1015.0
20260503000955 24 269 20.9 37.0 0.00 0.00 0.00 51 1015.0
20260502235452 24 272 20.9 37.0 0.00 0.00 0.00 48 1015.4
20260502233949 24 272 20.9 37.0 0.00 0.00 0.00 48 1015.4
20260502232449 24 272 20.9 37.0 0.00 0.00 0.00 48 1015.4
20260502230947 24 272 16.1 33.8 0.00 0.00 0.00 46 1016.1
20260502225443 24 272 16.1 33.8 0.00 0.00 0.00 46 1016.1
20260502223939 25 251 8.0 17.7 0.00 0.00 0.00 47 1016.4
20260502222438 25 251 8.0 17.7 0.00 0.00 0.00 47 1016.4
20260502220933 22 250 8.0 16.1 0.00 0.00 0.00 52 1017.2
20260502215434 22 250 8.0 16.1 0.00 0.00 0.00 52 1017.2
20260502213930 22 250 8.0 16.1 0.00 0.00 0.00 52 1017.2
20260502195443 18 224 3.2 9.7 0.00 0.00 0.00 65 1018.5
20260502193938 18 224 3.2 9.7 0.00 0.00 0.00 65 1018.5
20260502192434 18 224 3.2 9.7 0.00 0.00 0.00 65 1018.5
20260502182439 18 218 6.4 17.7 0.00 0.00 0.00 57 1018.9